Temp
9 9 8 8 8 7 7 6 6 6 6 6 6 6 6 6 6 6 6 6 6 6 6 6 6 6 6 6 6 6 5 5 5 5 5 4 4 4 4 5 5 5 5 5 4 5 5 5 5 5 5 5 5 5 5 5 5 4 4 4 4 4 4 4 4 4 4 4 4 4 4 4 4 4 4 4 4 3 3 3 3 3 3 3 4 4
8 8 7 7 7 6 6 6 5 5 6 6 6 6 6 6 6 6 6 6 6 6 5 5 5 5 5 5 5 5 5 5 5 5 5 4 4 4 4 4 4 4 4 4 4 4 4 4 4 4 4 5 5 5 4 4 4 4 4 4 4 4 4 4 4 4 4 4 4 4 4 4 4 4 3 3 3 3 3 3 3 3 3 3 3 3
7 6 6 6 6 5 5 5 5 5 5 6 6 5 5 5 5 5 5 5 5 5 5 5 5 5 5 5 5 4 4 4 4 4 4 4 3 3 3 4 4 4 4 4 4 4 4 4 4 4 4 4 4 4 4 4 4 4 4 4 4 4 4 4 4 3 3 3 4 4 3 3 3 3 3 3 3 3 3 3 3 3 3 3 3 3
6 6 5 5 5 5 5 5 5 4 5 5 5 5 5 5 5 5 5 5 5 5 4 4 5 5 4 4 4 4 4 4 4 4 3 3 3 3 3 3 3 3 3 4 4 4 4 4 4 4 4 4 4 4 4 4 4 4 4 4 4 3 3 3 3 3 3 3 3 3 3 3 3 3 3 3 3 3 3 3 3 3 3 3 3 3
5 6 5 5 4 4 4 4 4 4 4 5 5 5 5 5 5 5 5 5 5 4 4 4 4 4 4 4 4 4 4 4 3 3 3 3 3 3 3 3 3 3 3 3 3 3 3 3 3 3 3 3 3 3 3 3 3 3 3 3 3 3 3 3 3 3 3 3 3 3 3 2 2 2 2 2 2 2 2 2 2 2 2 2 2 3
5 5 5 4 4 4 3 4 4 4 4 4 4 4 4 4 4 4 4 4 4 4 4 4 4 4 4 4 3 3 3 3 3 3 3 3 3 3 2 2 2 2 2 3 2 2 2 2 2 2 2 2 2 2 2 2 2 3 3 3 3 2 2 2 2 2 2 2 2 2 2 2 2 2 2 2 2 2 2 2 2 2 2 2 2 2
4 4 4 4 4 4 3 3 4 4 4 4 4 4 4 4 4 4 4 3 3 3 3 3 3 3 3 3 3 3 3 3 3 3 3 3 3 2 2 2 2 2 2 2 2 2 2 2 2 2 2 2 2 2 2 2 2 2 2 2 2 2 2 2 2 2 2 2 2 2 2 2 2 2 2 2 2 2 2 2 2 2 2 2 2 2
4 3 3 3 3 3 3 3 3 3 4 4 3 3 3 3 3 3 3 3 3 3 3 3 3 3 3 3 3 3 3 3 3 3 3 3 2 2 2 2 2 2 2 2 2 2 2 2 2 2 2 2 2 2 1 1 1 1 2 2 2 2 2 2 1 1 1 1 1 1 1 1 1 2 2 2 2 2 2 2 2 2 2 2 2 2
4 3 3 3 3 3 3 3 3 3 3 3 3 3 3 3 3 3 3 3 3 3 3 3 3 2 2 2 2 2 2 2 2 2 2 3 2 2 2 2 2 2 2 2 2 2 2 2 2 2 2 2 2 1 1 1 1 1 1 1 1 1 1 1 1 1 1 1 1 1 1 1 1 1 1 2 2 2 2 2 2 2 2 2 2 2
4 4 3 3 3 3 3 2 2 3 3 3 3 3 3 3 3 3 3 3 3 3 3 3 3 2 2 2 2 2 2 2 2 2 2 2 2 2 2 2 2 2 2 1 1 1 1 2 2 2 2 1 1 1 1 1 1 1 1 1 1 1 1 1 1 1 1 1 1 1 1 1 1 1 1 1 2 2 2 2 2 2 2 2 2 2
4 3 3 2 2 3 3 2 2 2 3 3 3 3 3 3 3 2 2 2 2 2 2 3 2 2 2 2 2 2 2 2 2 2 2 2 2 2 2 2 2 1 1 1 1 1 1 1 1 1 1 1 1 1 1 1 1 1 1 1 1 1 1 0 0 0 0 0 0 1 1 1 1 1 1 1 1 1 2 2 2 2 2 2 2 2
3 3 3 2 2 2 2 2 2 2 2 2 2 2 2 2 2 2 2 2 2 2 2 2 2 2 2 2 2 2 2 2 2 2 2 2 2 2 2 2 2 1 1 1 1 1 1 1 1 1 1 1 1 1 0 0 0 0 0 0 0 0 0 0 0 0 0 0 0 0 0 1 1 1 1 1 1 1 1 1 1 1 1 1 1 1
3 3 2 2 2 2 2 2 2 2 2 2 2 2 2 2 2 2 2 2 2 2 2 1 2 2 2 2 2 2 2 2 2 2 2 2 2 2 2 2 1 1 1 1 1 1 1 1 1 1 1 1 1 0 0 0 0 0 0 0 0 0 0 -0 -0 -0 -0 -0 -0 0 0 0 0 0 0 0 0 1 1 1 1 1 1 1 1 1
2 2 2 2 2 2 1 1 1 1 1 1 2 2 2 2 2 1 1 1 1 1 1 1 1 1 2 1 1 2 2 2 2 2 2 2 2 2 2 2 1 1 1 1 1 1 1 1 1 1 1 1 1 1 0 0 0 0 0 0 -0 -0 -0 -0 -0 -0 -0 -0 -0 -0 0 -0 -0 -0 -0 -0 -0 -0 0 0 0 0 0 0 0 1
2 2 2 1 1 1 1 1 1 1 1 2 2 2 2 2 1 1 1 1 1 1 1 1 1 1 1 1 1 1 2 2 2 2 1 1 1 1 1 1 1 1 1 1 1 1 1 1 1 1 1 1 0 0 0 0 0 0 0 -0 -0 -0 -0 -1 -1 -1 -1 -1 -0 -0 -0 -1 -1 -1 -1 -1 -1 -0 -0 -0 -0 -0 0 0 0 0
2 2 2 2 2 1 1 1 1 1 2 2 2 2 2 1 1 1 0 0 0 0 0 0 0 0 1 1 1 1 1 1 1 1 1 1 1 1 1 1 1 1 1 1 1 1 1 0 0 0 0 0 0 0 0 0 0 0 -0 -0 -0 -1 -1 -1 -1 -1 -1 -1 -1 -1 -1 -1 -1 -1 -1 -1 -1 -1 -1 -0 -0 -0 -0 0 0 0
2 2 2 2 2 1 1 1 2 2 2 1 1 1 1 1 1 0 0 0 0 0 0 -0 -0 0 0 1 1 1 1 1 1 1 1 1 1 1 1 1 1 1 1 1 1 1 0 0 0 0 0 0 0 0 0 -0 -0 -0 -1 -1 -1 -1 -1 -1 -1 -1 -1 -1 -1 -1 -1 -1 -1 -1 -1 -1 -1 -1 -1 -0 -0 -0 -0 -0 -0 -0
2 2 2 2 2 2 2 2 2 2 2 1 1 1 1 1 1 1 0 0 0 -0 -0 -0 0 1 1 1 1 1 1 1 1 1 1 1 1 1 1 1 1 1 1 1 1 0 0 0 0 0 0 0 0 -0 -0 -0 -1 -1 -1 -1 -1 -1 -1 -1 -1 -1 -1 -1 -1 -1 -1 -1 -2 -2 -1 -1 -1 -1 -1 -1 -1 -0 -0 -0 -0 -0
3 3 3 3 3 3 3 2 2 2 2 2 1 1 0 0 1 1 0 0 0 0 -0 -0 0 1 2 2 2 2 1 1 1 1 1 1 1 1 1 0 0 0 0 0 0 0 0 0 0 0 0 -0 -0 -0 -0 -1 -1 -1 -1 -1 -1 -1 -1 -1 -1 -1 -1 -1 -1 -1 -2 -2 -2 -2 -2 -2 -1 -1 -1 -1 -1 -1 -1 -1 -0 -0
4 4 4 4 4 4 3 3 3 3 3 3 2 1 1 0 0 1 0 0 0 0 0 0 1 1 2 2 2 2 2 1 1 1 0 0 0 0 0 0 0 0 0 0 0 0 0 -0 -0 -0 -0 -0 -0 -1 -1 -1 -1 -1 -1 -1 -1 -1 -1 -1 -1 -1 -1 -1 -1 -1 -2 -2 -2 -2 -2 -2 -2 -2 -1 -1 -1 -1 -1 -1 -1 -1
4 4 5 5 5 4 4 4 4 4 4 3 2 1 1 1 1 1 1 1 1 1 1 1 1 1 2 2 2 2 2 1 1 0 0 0 0 0 0 0 0 0 0 0 0 0 -0 -0 -0 -0 -0 -0 -1 -1 -1 -1 -1 -1 -1 -1 -1 -1 -1 -1 -1 -1 -1 -1 -1 -1 -2 -2 -2 -2 -2 -2 -2 -2 -2 -2 -2 -1 -1 -1 -1 -1
4 4 5 4 4 4 4 5 4 4 4 3 2 1 1 1 1 1 1 1 1 1 1 1 1 1 1 2 2 1 1 1 1 0 0 -0 -0 0 0 -0 -0 -0 -0 -0 -0 -0 -0 -0 -0 -0 -1 -1 -1 -1 -1 -1 -1 -1 -1 -1 -1 -1 -1 -1 -1 -1 -2 -2 -1 -1 -2 -2 -2 -2 -2 -2 -2 -2 -2 -2 -2 -2 -2 -1 -1 -1
4 4 4 4 4 4 4 4 4 4 3 3 3 2 2 2 2 2 2 2 2 1 1 1 1 1 1 1 1 1 1 1 0 0 -0 -0 0 0 0 -0 -0 -0 -0 -0 -0 -0 -0 -0 -0 -1 -1 -1 -1 -1 -1 -1 -1 -1 -1 -1 -1 -2 -2 -2 -2 -2 -2 -2 -1 -1 -1 -2 -2 -2 -2 -2 -2 -2 -2 -2 -2 -2 -2 -2 -1 -1
3 4 4 4 4 4 4 3 3 3 3 3 3 3 3 3 3 3 3 3 2 2 2 1 1 1 0 0 0 0 0 0 0 -0 -0 -0 -0 0 0 -0 -0 -0 -0 -0 -0 -0 -0 -1 -1 -1 -1 -1 -1 -1 -1 -1 -1 -1 -1 -1 -2 -2 -2 -2 -2 -2 -2 -2 -1 -1 -1 -1 -2 -2 -2 -2 -2 -2 -2 -2 -2 -2 -2 -2 -2 -1
4 4 4 4 3 3 4 3 3 3 3 3 2 2 2 2 2 2 2 2 2 2 1 1 0 -0 -0 -0 -0 -0 -0 -0 -1 -1 -1 -1 -1 -0 -0 -0 -0 -0 -0 -1 -1 -1 -1 -1 -1 -1 -1 -1 -1 -1 -1 -1 -1 -1 -1 -2 -2 -2 -2 -2 -2 -2 -2 -2 -2 -2 -2 -2 -2 -2 -2 -2 -2 -2 -2 -2 -2 -2 -2 -2 -2 -2
3 3 3 3 3 3 3 3 3 3 3 3 2 2 2 2 2 2 1 1 1 1 1 0 -0 -1 -1 -1 -1 -1 -1 -1 -1 -1 -1 -1 -1 -1 -1 -1 -1 -1 -1 -1 -1 -1 -1 -1 -1 -1 -1 -1 -1 -1 -1 -1 -1 -2 -2 -2 -2 -2 -2 -2 -2 -2 -2 -2 -2 -2 -2 -2 -2 -2 -2 -2 -2 -2 -2 -2 -2 -2 -2 -2 -2 -2
3 3 3 3 3 3 3 3 3 2 2 2 2 2 2 2 1 1 1 1 1 1 0 -0 -0 -1 -1 -1 -1 -1 -1 -1 -1 -1 -1 -1 -1 -1 -1 -1 -1 -1 -1 -1 -1 -1 -1 -1 -1 -1 -1 -1 -1 -1 -1 -1 -2 -2 -2 -2 -2 -2 -2 -2 -2 -2 -2 -2 -2 -2 -2 -2 -2 -2 -2 -2 -2 -2 -2 -2 -2 -2 -2 -2 -2 -2
2 2 2 2 2 2 2 2 2 2 2 2 2 1 1 1 1 1 1 1 1 1 0 -0 -0 -1 -1 -1 -1 -1 -1 -1 -1 -1 -1 -2 -2 -1 -1 -1 -1 -1 -1 -1 -1 -1 -1 -1 -1 -1 -1 -1 -1 -1 -2 -2 -2 -2 -2 -2 -2 -2 -2 -2 -2 -2 -2 -2 -2 -2 -2 -2 -2 -2 -2 -2 -2 -2 -2 -2 -2 -2 -2 -2 -2 -2
1 1 1 1 1 1 1 1 1 1 1 1 1 1 1 1 1 1 1 1 1 0 0 -0 -0 -0 -1 -0 -1 -1 -1 -1 -1 -1 -2 -2 -2 -2 -1 -1 -1 -1 -1 -1 -1 -1 -1 -1 -1 -1 -1 -1 -1 -2 -2 -2 -2 -2 -2 -2 -2 -2 -2 -3 -3 -2 -2 -2 -2 -2 -2 -2 -2 -2 -2 -2 -2 -2 -2 -2 -2 -2 -2 -2 -2 -2
1 0 0 1 1 1 1 1 1 0 0 0 0 0 0 0 0 0 1 1 0 0 -0 -0 -1 -1 -1 -1 -1 -2 -2 -1 -1 -1 -2 -2 -2 -2 -2 -2 -2 -2 -2 -1 -1 -1 -1 -1 -1 -1 -1 -1 -2 -2 -2 -2 -2 -2 -2 -2 -2 -2 -2 -2 -3 -3 -2 -2 -2 -2 -2 -2 -2 -2 -2 -2 -2 -2 -2 -2 -2 -2 -2 -2 -2 -2
1 0 0 0 0 0 0 0 -0 -0 -1 -0 -0 0 -0 -0 -0 -0 -0 -0 -0 -0 -0 -1 -1 -1 -1 -1 -2 -2 -2 -1 -1 -1 -2 -2 -2 -2 -2 -2 -2 -2 -2 -2 -1 -1 -2 -2 -1 -2 -2 -2 -2 -2 -2 -2 -2 -2 -2 -2 -2 -2 -2 -2 -2 -2 -2 -2 -2 -2 -2 -2 -2 -2 -2 -2 -2 -2 -2 -2 -2 -2 -2 -2 -2 -2
0 0 -0 -0 -0 -0 -0 -0 -0 -1 -1 -1 -0 -0 -1 -1 -1 -1 -1 -1 -1 -1 -1 -1 -1 -1 -1 -1 -2 -2 -1 -1 -1 -1 -2 -2 -2 -2 -2 -2 -2 -2 -2 -2 -1 -2 -4 -2 -2 -2 -2 -2 -2 -2 -2 -2 -2 -2 -2 -2 -2 -2 -2 -2 -2 -2 -2 -2 -2 -2 -2 -2 -2 -2 -2 -2 -2 -2 -2 -2 -2 -2 -2 -2 -2 -2
-0 -0 -1 -1 -1 -1 -1 -1 -1 -1 -1 -1 -1 -1 -1 -1 -1 -1 -1 -2 -2 -2 -2 -2 -2 -2 -2 -2 -2 -1 -1 -1 -1 -2 -2 -2 -3 -3 -2 -2 -2 -2 -2 -2 -2 -2 -3 -2 -2 -2 -2 -2 -2 -2 -2 -2 -2 -2 -2 -2 -2 -2 -2 -2 -2 -2 -2 -2 -2 -2 -2 -2 -2 -2 -2 -2 -2 -2 -2 -2 -2 -2 -2 -2 -2 -2
-1 -1 -1 -1 -1 -1 -1 -1 -2 -2 -2 -1 -1 -1 -2 -2 -2 -2 -2 -2 -2 -2 -2 -2 -2 -2 -2 -2 -2 -2 -2 -2 -2 -2 -2 -2 -3 -3 -3 -2 -2 -2 -2 -2 -3 -3 -2 -2 -2 -2 -2 -2 -2 -2 -2 -2 -2 -2 -2 -2 -2 -2 -2 -2 -2 -2 -2 -2 -2 -2 -2 -2 -2 -2 -2 -2 -2 -2 -2 -2 -2 -2 -3 -2 -2 -2
-1 -1 -1 -1 -2 -2 -2 -2 -2 -2 -2 -2 -2 -2 -2 -2 -2 -2 -2 -3 -3 -3 -3 -3 -3 -3 -3 -3 -3 -3 -2 -2 -2 -2 -3 -3 -3 -3 -3 -2 -2 -2 -2 -3 -3 -3 -3 -3 -2 -2 -2 -2 -2 -2 -2 -2 -2 -2 -2 -2 -2 -2 -2 -2 -2 -2 -2 -2 -2 -2 -2 -2 -2 -2 -2 -2 -2 -2 -2 -2 -2 -2 -2 -2 -2 -2
-1 -2 -2 -2 -2 -2 -2 -2 -2 -2 -2 -2 -2 -2 -3 -3 -3 -3 -3 -3 -3 -3 -3 -3 -3 -3 -3 -3 -3 -3 -3 -3 -3 -3 -3 -3 -3 -3 -3 -3 -2 -2 -2 -3 -3 -3 -3 -3 -3 -3 -2 -2 -2 -2 -2 -2 -2 -2 -2 -2 -2 -2 -2 -3 -3 -2 -2 -2 -2 -2 -2 -2 -2 -2 -2 -2 -2 -2 -2 -2 -2 -2 -2 -2 -3 -2
-2 -2 -2 -2 -2 -2 -2 -2 -2 -2 -2 -2 -3 -3 -3 -3 -3 -3 -3 -3 -4 -4 -4 -4 -4 -4 -4 -4 -4 -3 -3 -3 -3 -3 -3 -3 -3 -3 -3 -3 -3 -3 -3 -3 -3 -3 -3 -3 -3 -3 -3 -3 -3 -2 -2 -2 -2 -2 -2 -3 -3 -3 -3 -3 -3 -3 -2 -2 -2 -2 -2 -2 -2 -2 -2 -2 -2 -2 -2 -2 -2 -2 -2 -2 -2 -3
-2 -2 -2 -2 -2 -2 -2 -2 -2 -2 -2 -2 -3 -3 -3 -3 -3 -3 -4 -4 -4 -4 -4 -4 -4 -4 -4 -4 -4 -4 -4 -4 -4 -4 -4 -4 -4 -3 -3 -3 -3 -3 -3 -3 -3 -3 -3 -3 -3 -3 -3 -3 -3 -2 -2 -2 -2 -2 -3 -3 -3 -3 -3 -3 -3 -3 -2 -2 -2 -2 -2 -2 -2 -2 -2 -2 -2 -2 -2 -2 -2 -2 -2 -2 -2 -2
-2 -2 -2 -2 -2 -2 -2 -2 -2 -2 -2 -3 -3 -3 -3 -3 -4 -4 -4 -4 -4 -4 -4 -4 -4 -4 -4 -4 -4 -4 -4 -4 -4 -4 -4 -4 -4 -4 -4 -4 -4 -4 -4 -4 -3 -3 -3 -3 -3 -3 -2 -3 -3 -3 -2 -2 -2 -2 -3 -3 -2 -2 -2 -2 -2 -2 -2 -2 -2 -2 -2 -2 -2 -2 -2 -2 -2 -2 -2 -2 -2 -2 -2 -2 -2 -2
-2 -2 -2 -2 -2 -2 -2 -3 -3 -3 -3 -3 -3 -3 -4 -4 -4 -4 -4 -4 -4 -4 -4 -4 -4 -4 -4 -4 -4 -4 -4 -4 -4 -4 -4 -4 -4 -4 -4 -4 -4 -4 -4 -4 -4 -4 -4 -4 -4 -3 -3 -3 -2 -3 -3 -3 -3 -3 -3 -3 -2 -2 -2 -2 -2 -2 -2 -2 -2 -2 -2 -2 -2 -2 -2 -2 -2 -2 -2 -2 -2 -2 -2 -2 -2 -2
-2 -2 -2 -2 -2 -3 -3 -3 -3 -3 -3 -3 -3 -4 -4 -4 -4 -4 -4 -4 -4 -4 -4 -4 -4 -4 -4 -4 -4 -4 -5 -5 -5 -5 -5 -5 -5 -5 -5 -5 -4 -4 -4 -4 -4 -4 -4 -4 -4 -4 -4 -3 -3 -3 -3 -3 -3 -3 -3 -3 -3 -2 -2 -2 -2 -2 -2 -2 -2 -2 -2 -2 -2 -2 -3 -3 -3 -3 -3 -3 -2 -2 -2 -2 -2 -2
-2 -2 -2 -2 -2 -3 -3 -3 -3 -3 -3 -4 -4 -4 -4 -4 -4 -4 -4 -4 -4 -4 -4 -4 -4 -4 -4 -4 -4 -4 -5 -5 -5 -5 -5 -5 -5 -5 -5 -5 -5 -5 -5 -5 -5 -5 -5 -4 -4 -4 -4 -4 -4 -4 -4 -4 -3 -4 -4 -4 -3 -3 -3 -2 -2 -2 -2 -2 -2 -3 -3 -3 -3 -3 -3 -3 -3 -3 -3 -3 -3 -3 -2 -2 -2 -2
-2 -2 -2 -2 -3 -3 -3 -3 -3 -3 -4 -4 -4 -4 -4 -4 -4 -4 -4 -4 -4 -4 -4 -4 -4 -4 -4 -4 -4 -4 -4 -5 -5 -5 -5 -5 -5 -5 -5 -5 -5 -5 -5 -5 -5 -5 -5 -5 -5 -5 -4 -4 -4 -5 -5 -4 -4 -4 -4 -4 -4 -4 -3 -3 -2 -2 -3 -3 -3 -3 -3 -3 -4 -4 -4 -4 -4 -4 -3 -3 -3 -3 -3 -2 -2 -2
-2 -2 -3 -3 -3 -3 -3 -3 -3 -3 -4 -4 -4 -4 -4 -4 -4 -4 -4 -4 -4 -4 -4 -4 -4 -4 -5 -5 -5 -4 -4 -4 -4 -5 -5 -5 -5 -5 -5 -5 -5 -5 -5 -5 -5 -5 -5 -5 -5 -5 -5 -5 -5 -5 -5 -5 -5 -5 -4 -4 -4 -4 -4 -4 -3 -3 -3 -3 -3 -3 -3 -4 -4 -4 -4 -4 -4 -4 -3 -3 -3 -3 -3 -3 -2 -2
-3 -3 -3 -3 -3 -3 -3 -3 -3 -3 -3 -4 -4 -4 -4 -4 -4 -4 -4 -4 -4 -4 -4 -4 -4 -5 -5 -5 -5 -5 -5 -4 -4 -4 -4 -5 -5 -5 -5 -5 -5 -5 -5 -5 -5 -5 -5 -6 -5 -5 -5 -5 -5 -5 -5 -5 -5 -5 -5 -4 -4 -4 -4 -4 -3 -3 -3 -3 -3 -3 -3 -4 -4 -4 -4 -4 -3 -3 -3 -3 -3 -3 -3 -3 -3 -2
-3 -3 -3 -3 -3 -3 -3 -3 -3 -3 -3 -3 -3 -4 -4 -4 -4 -4 -4 -4 -4 -4 -4 -4 -5 -5 -5 -5 -5 -5 -5 -5 -4 -4 -4 -4 -4 -5 -5 -5 -5 -5 -5 -5 -5 -5 -5 -5 -5 -5 -5 -5 -5 -5 -5 -5 -5 -5 -5 -4 -4 -4 -4 -3 -3 -3 -3 -3 -3 -3 -4 -4 -4 -4 -4 -4 -3 -3 -3 -3 -3 -3 -3 -3 -3 -3
-3 -3 -3 -3 -3 -3 -3 -3 -3 -3 -3 -3 -3 -3 -4 -4 -4 -4 -4 -4 -4 -4 -4 -5 -5 -5 -5 -5 -5 -5 -5 -5 -5 -5 -5 -5 -5 -5 -5 -5 -5 -5 -5 -5 -5 -5 -5 -5 -5 -6 -6 -6 -6 -6 -6 -5 -5 -5 -5 -4 -4 -4 -4 -3 -3 -3 -3 -3 -3 -3 -4 -4 -4 -4 -4 -4 -4 -4 -3 -3 -3 -3 -3 -3 -3 -3
-3 -3 -3 -3 -3 -3 -3 -3 -3 -3 -3 -3 -3 -3 -4 -4 -4 -4 -4 -4 -4 -4 -5 -5 -5 -5 -5 -5 -5 -5 -5 -5 -5 -5 -5 -5 -5 -5 -5 -5 -5 -6 -6 -6 -6 -6 -6 -6 -6 -6 -6 -6 -6 -6 -6 -6 -5 -5 -4 -4 -4 -4 -4 -3 -3 -3 -3 -3 -3 -4 -4 -4 -5 -5 -5 -5 -4 -4 -3 -3 -3 -3 -3 -3 -3 -3
-3 -3 -3 -3 -3 -3 -3 -3 -3 -3 -4 -4 -4 -4 -4 -4 -4 -4 -4 -4 -4 -4 -5 -5 -5 -5 -5 -5 -5 -5 -5 -5 -5 -5 -5 -5 -5 -5 -6 -6 -6 -6 -6 -6 -6 -6 -6 -6 -6 -6 -6 -6 -6 -6 -6 -6 -5 -5 -5 -5 -5 -4 -4 -3 -3 -3 -3 -3 -4 -4 -4 -5 -5 -5 -5 -5 -5 -4 -4 -3 -3 -3 -3 -3 -3 -3
-3 -3 -3 -3 -3 -3 -3 -3 -3 -3 -4 -4 -4 -4 -4 -4 -4 -4 -4 -4 -5 -5 -5 -5 -5 -5 -6 -6 -5 -5 -5 -5 -5 -5 -5 -5 -5 -5 -6 -6 -6 -6 -6 -6 -6 -6 -6 -6 -6 -5 -5 -5 -5 -5 -6 -6 -6 -5 -5 -5 -5 -4 -4 -4 -3 -3 -3 -4 -4 -4 -5 -5 -5 -6 -6 -6 -5 -5 -4 -4 -3 -3 -3 -3 -3 -3
-3 -3 -3 -3 -3 -3 -3 -3 -3 -3 -4 -4 -4 -4 -4 -4 -4 -5 -5 -5 -5 -5 -5 -5 -5 -6 -6 -6 -6 -6 -6 -6 -6 -5 -5 -5 -5 -5 -5 -6 -6 -6 -6 -7 -7 -7 -7 -7 -6 -6 -5 -4 -4 -4 -5 -5 -6 -6 -6 -5 -5 -4 -4 -4 -4 -3 -4 -4 -4 -5 -5 -5 -5 -6 -6 -6 -6 -6 -5 -4 -3 -3 -3 -3 -3 -3
Height
808 809 810 810 811 812 813 813 814 814 815 815 815 816 817 818 818 819 820 820 820 820 820 820 821 821 821 822 822 823 823 823 824 824 825 825 825 825 825 825 826 826 826 827 827 828 828 828 828 828 829 829 829 830 830 831 831 832 832 833 833 834 834 835 835 835 836 836 836 836 835 835 835 835 836 836 837 838 838 838 838 839 839 839 839 839
807 808 809 809 810 811 811 812 813 813 814 814 815 815 816 817 818 818 819 819 820 820 820 820 820 820 821 821 822 822 823 823 823 824 824 824 825 825 825 825 825 826 826 826 827 827 828 828 828 828 829 829 829 830 830 830 831 831 832 832 833 833 834 834 834 835 835 835 835 835 835 835 835 835 836 836 837 838 838 838 838 838 838 838 838 838
806 807 808 808 809 810 810 811 811 812 813 813 814 815 815 816 817 818 818 819 819 819 820 820 820 820 820 821 822 822 822 822 823 823 824 824 824 824 825 825 825 825 826 826 827 827 827 828 828 828 828 829 829 829 830 830 830 831 831 832 832 833 833 833 833 833 833 833 834 834 834 834 834 835 836 836 837 837 837 837 837 837 837 838 838 838
805 805 806 807 808 809 809 810 810 811 812 813 814 814 815 815 816 817 817 818 818 819 819 819 819 820 820 820 821 822 822 822 822 823 823 823 824 824 824 824 825 825 825 826 826 827 827 827 828 828 828 829 829 829 829 830 830 830 831 831 831 832 832 832 832 832 833 833 833 833 833 834 834 835 835 836 836 836 836 836 837 837 837 837 837 838
803 804 805 805 807 808 808 809 810 810 811 812 813 814 814 815 816 816 817 817 818 818 818 819 819 819 819 820 821 821 822 822 822 822 823 823 823 823 824 824 824 825 825 826 826 826 827 827 827 828 828 828 828 829 829 829 829 830 830 830 831 831 831 831 831 832 832 832 832 833 833 833 834 834 834 835 835 835 835 836 836 836 836 836 837 837
802 803 804 804 805 806 807 808 809 810 811 812 813 813 814 814 815 815 816 816 817 817 818 818 818 819 819 819 820 821 821 821 822 822 823 823 823 823 823 824 824 825 825 825 826 826 826 827 827 828 828 828 828 828 829 829 829 829 829 830 830 830 830 830 831 831 831 832 832 832 832 833 833 833 833 834 834 834 834 835 835 835 835 836 836 836
801 802 803 804 804 805 806 807 808 808 809 810 811 812 813 814 814 815 815 816 816 817 817 817 818 818 819 819 820 820 820 820 821 821 822 822 823 823 823 823 824 824 825 825 825 825 826 827 827 827 828 828 828 828 828 828 828 829 829 829 829 830 830 830 830 831 831 831 831 832 832 832 832 832 833 833 833 833 833 834 834 834 835 835 835 836
800 801 802 803 803 804 805 806 807 808 808 809 810 811 812 813 813 814 815 815 816 816 817 817 817 818 818 819 819 819 820 820 820 821 821 822 822 822 823 823 823 824 824 824 825 825 826 826 827 827 827 828 828 828 828 828 828 828 828 828 829 829 829 830 830 830 830 830 831 831 831 831 831 832 832 832 832 832 833 833 833 833 834 834 835 835
798 799 800 801 802 803 804 805 806 807 808 808 809 810 811 812 813 813 814 815 815 816 816 816 817 817 818 818 818 819 819 820 820 821 821 821 821 822 822 822 823 823 824 824 825 825 825 826 826 827 827 827 827 827 827 827 827 828 828 828 828 828 829 829 829 829 830 830 830 830 830 830 830 831 831 831 831 831 832 832 832 833 833 833 834 835
797 798 799 800 801 802 803 804 805 806 807 808 808 809 810 810 811 812 813 814 814 815 815 816 816 817 817 818 818 818 819 819 820 820 820 821 821 821 821 822 822 823 823 824 824 825 825 825 826 826 826 826 827 827 827 827 827 827 827 828 828 828 828 828 828 829 829 829 829 829 829 829 830 830 830 830 830 830 831 831 831 832 832 832 833 834
796 797 798 800 801 801 802 803 804 805 806 807 808 809 809 810 810 811 812 812 813 814 814 815 816 816 817 817 817 818 818 818 819 819 820 820 820 820 821 821 822 822 823 823 824 824 824 825 825 825 825 826 826 826 826 826 826 827 827 827 827 827 828 828 828 828 828 828 828 828 828 828 829 829 829 829 829 829 830 830 830 831 831 831 832 833
796 797 798 799 800 801 802 802 803 804 805 806 808 808 809 809 809 810 810 811 812 812 813 814 815 815 816 816 816 817 817 818 818 819 819 819 819 819 820 820 821 822 822 822 823 823 823 824 824 824 825 825 825 825 825 826 826 826 826 826 826 827 827 827 827 827 827 827 827 827 827 828 828 828 828 828 828 828 829 829 829 830 830 831 831 832
795 796 797 798 799 800 801 802 803 804 804 805 805 806 806 807 808 808 809 810 810 811 812 813 814 815 815 815 816 816 817 817 818 818 818 818 818 819 819 820 820 821 821 822 822 822 823 823 823 823 824 824 824 825 825 825 825 825 825 826 826 826 826 826 826 826 826 826 826 826 827 827 827 827 827 827 827 828 828 828 829 829 830 830 831 831
795 796 797 798 799 799 800 800 801 802 802 802 803 803 804 805 806 808 809 809 810 811 812 813 813 814 814 815 815 816 816 816 817 817 818 818 818 818 819 819 820 820 821 821 821 822 822 822 823 823 823 823 824 824 824 824 824 825 825 825 825 825 825 825 825 825 825 825 825 826 826 826 826 826 826 826 827 827 827 828 828 829 829 830 830 831
793 795 796 797 798 798 799 799 799 799 800 800 801 802 803 805 806 807 808 809 809 810 811 812 813 813 814 814 814 815 815 816 816 816 817 817 817 818 818 819 819 820 820 820 821 821 821 822 822 822 823 823 823 823 823 823 824 824 824 824 824 825 825 825 825 825 825 825 825 825 825 825 825 826 826 826 826 826 827 827 828 828 829 829 830 830
792 793 795 795 796 797 797 798 798 798 799 800 801 802 803 804 805 805 807 807 808 810 811 812 813 813 813 813 813 814 815 815 815 815 816 816 816 817 817 818 818 819 819 820 820 820 820 821 821 821 822 822 822 822 823 823 823 823 823 823 824 824 824 824 824 824 824 824 824 824 824 825 825 825 825 825 826 826 826 827 827 828 828 829 829 830
792 792 793 794 795 795 796 796 797 798 798 799 800 801 802 803 803 804 805 806 808 809 810 810 812 812 813 812 813 813 813 814 814 815 815 815 816 816 817 817 817 818 818 819 819 819 820 820 820 820 821 821 821 821 822 822 822 822 822 823 823 823 823 823 823 823 823 823 823 824 824 824 824 825 825 825 825 826 826 827 827 827 828 828 829 829
791 792 792 793 793 794 795 795 796 797 798 798 799 800 801 802 803 804 805 806 807 808 808 809 810 810 811 811 811 811 812 813 813 813 814 815 815 815 816 816 816 817 817 818 818 818 819 819 819 819 820 820 820 820 820 821 821 821 821 821 822 822 822 822 823 823 823 823 823 823 823 824 824 824 824 825 825 825 826 826 827 827 827 828 828 829
791 791 792 792 792 793 794 794 795 795 796 797 798 799 800 801 803 803 804 805 805 806 807 808 808 808 809 809 809 809 810 811 812 813 813 814 814 814 815 815 815 816 816 817 817 818 818 818 818 818 819 819 819 819 819 820 820 820 820 820 821 821 821 821 822 822 822 822 822 822 823 823 823 823 824 824 824 825 825 826 826 826 827 827 828 828
790 791 791 791 792 792 793 793 793 794 795 795 796 798 799 800 802 802 803 804 804 805 806 806 807 808 808 808 808 808 810 810 811 812 812 813 813 813 814 814 815 815 815 816 816 817 817 817 817 817 818 818 818 818 818 819 819 819 819 820 820 820 820 821 821 821 821 821 821 822 822 822 823 823 823 823 824 824 825 825 825 826 826 826 827 828
790 790 790 791 792 792 792 792 793 793 794 795 796 797 798 799 800 801 802 803 804 805 805 806 806 807 808 808 808 808 809 810 810 811 812 812 813 813 813 813 814 814 814 815 815 816 816 816 816 816 816 817 817 817 817 818 818 818 818 819 819 819 820 820 820 820 820 820 821 821 821 822 822 822 822 823 823 823 824 824 825 825 825 826 827 827
790 790 790 791 791 792 792 792 792 793 794 794 795 796 797 798 799 800 801 802 803 804 805 805 806 807 807 807 808 808 809 809 810 810 811 812 812 812 812 813 813 813 813 814 814 815 815 815 815 815 815 815 816 816 816 816 817 817 817 818 818 818 819 819 819 819 820 820 820 820 821 821 821 822 822 822 823 823 823 823 824 824 825 825 826 826
790 790 790 791 791 791 792 792 792 793 793 794 794 795 796 797 797 798 800 801 802 803 804 805 806 806 807 807 807 808 808 809 809 810 810 811 811 811 811 812 812 812 813 813 813 813 813 813 814 814 814 814 815 815 815 815 816 816 816 817 817 818 818 818 818 818 819 819 819 820 820 820 821 821 821 822 822 822 823 823 823 824 824 825 825 826
789 790 790 790 791 791 791 791 792 792 793 794 795 795 796 797 798 799 800 801 802 803 804 804 805 806 806 807 807 807 808 808 809 809 810 810 810 810 810 811 811 811 812 812 812 812 812 812 813 813 813 813 813 814 814 814 815 815 815 816 816 817 817 817 817 818 818 818 818 819 819 820 820 820 821 821 822 822 822 823 823 823 824 824 825 825
789 790 790 790 790 791 791 791 792 792 793 794 795 795 797 798 799 800 800 801 802 803 803 804 805 805 805 806 806 807 807 808 808 809 809 809 810 810 810 810 810 811 811 811 811 811 811 812 812 812 812 812 812 813 813 813 814 814 815 815 815 815 816 816 816 817 817 817 818 818 818 819 819 820 820 821 821 821 822 822 823 823 823 824 824 824
790 790 790 790 790 791 791 791 792 793 793 794 795 795 796 797 798 799 800 801 801 802 803 804 804 804 805 805 806 806 806 807 807 808 808 809 809 809 809 809 810 810 810 810 810 810 811 811 811 811 811 811 811 812 812 813 813 813 814 814 814 814 815 815 815 816 816 816 817 817 818 818 819 819 820 820 820 821 821 821 822 822 823 823 823 824
790 790 790 790 790 791 791 792 792 793 794 794 795 795 796 797 798 798 799 800 800 801 802 803 803 803 804 804 805 805 805 806 806 807 808 808 808 808 808 808 809 809 809 810 810 810 810 810 810 810 810 810 811 811 811 812 812 813 813 813 813 813 814 814 815 815 815 815 816 816 817 818 818 818 819 819 820 820 820 821 821 822 822 822 823 823
790 790 790 790 790 791 791 792 792 793 794 794 795 796 796 797 797 798 798 799 800 801 801 802 802 803 803 804 804 804 805 805 805 806 807 808 808 807 807 808 808 808 809 809 809 809 809 809 809 809 809 810 810 810 811 811 811 812 812 812 813 813 813 813 814 814 815 815 815 816 816 817 817 818 818 819 819 819 820 820 820 821 821 822 822 822
790 790 790 790 790 791 791 792 793 793 794 794 795 795 796 797 797 797 798 799 799 800 800 801 801 802 803 803 803 804 804 804 805 805 806 806 807 806 806 807 807 808 808 808 808 808 808 808 808 808 809 809 809 810 810 810 810 811 811 811 812 812 812 813 813 814 814 814 815 815 816 816 817 817 818 818 818 819 819 819 820 820 820 821 821 821
790 790 790 790 790 791 791 792 793 793 794 794 795 795 796 796 797 797 798 798 799 799 800 800 801 801 802 803 803 803 803 803 803 804 805 805 805 805 806 806 807 807 807 808 808 808 807 807 807 808 808 808 809 809 809 810 810 810 811 811 811 811 812 812 812 813 813 814 814 815 815 815 816 816 817 817 818 818 818 819 819 819 819 819 820 820
790 790 790 790 791 791 792 792 793 793 794 794 794 795 795 796 796 797 798 798 798 799 799 800 800 801 801 802 803 803 801 801 801 802 803 804 804 805 805 805 806 806 807 807 807 807 807 806 806 807 807 808 808 809 809 809 810 810 810 810 811 811 811 811 812 812 813 813 814 814 815 815 815 815 816 816 817 817 817 818 818 818 818 818 819 819
790 790 791 791 791 791 792 792 793 793 793 794 794 795 795 795 796 797 797 798 798 798 799 799 800 800 800 801 801 801 800 800 801 801 802 803 804 804 804 805 805 805 806 806 806 806 807 806 806 806 807 807 808 808 808 809 809 809 810 810 810 810 810 811 811 811 811 812 813 813 814 814 814 815 815 815 816 816 816 817 817 817 817 817 818 818
791 791 791 791 791 792 792 792 793 793 793 794 794 795 795 795 796 796 797 797 798 798 798 799 799 799 800 800 800 800 800 800 801 801 802 802 803 803 803 804 804 805 805 806 806 806 806 806 806 806 807 807 807 808 808 808 808 809 809 809 809 809 809 810 810 810 811 811 811 812 812 813 813 813 814 814 815 815 815 816 816 816 816 816 816 817
791 791 791 791 792 792 792 793 793 793 793 794 794 795 795 795 796 796 796 797 797 797 798 798 798 798 799 799 799 800 800 800 801 801 801 802 802 802 802 803 803 804 805 805 805 806 806 806 806 806 806 806 807 807 807 807 808 808 808 808 808 808 808 809 809 809 810 810 811 811 811 811 812 812 813 813 813 814 814 814 815 815 815 815 815 816
791 791 791 792 792 792 792 793 793 793 793 793 794 794 795 795 795 796 796 796 796 797 797 797 797 798 798 798 799 799 800 800 800 801 801 801 801 801 802 802 803 803 804 804 805 805 805 805 805 805 806 806 806 806 806 807 807 807 807 807 807 808 808 808 808 809 809 809 810 810 810 811 811 811 812 812 812 813 813 813 814 814 814 814 815 815
791 791 791 792 792 792 792 793 793 793 793 793 794 794 794 795 795 795 795 796 796 796 796 796 797 797 797 798 798 799 799 800 800 800 800 800 801 801 801 802 802 802 803 803 804 804 804 805 805 805 805 805 805 805 805 805 806 806 806 806 807 807 807 807 808 808 808 808 809 809 809 810 810 810 811 811 811 812 812 812 813 813 813 814 814 814
790 791 791 791 792 792 792 792 793 793 793 793 794 794 794 794 795 795 795 795 795 796 796 796 796 796 797 797 797 798 798 799 799 799 799 800 800 800 801 801 801 802 802 803 803 803 804 804 804 804 805 805 805 804 804 804 805 805 805 806 806 806 806 807 807 807 807 808 808 808 808 809 809 809 810 810 810 810 811 811 811 811 812 812 813 813
790 790 790 791 791 791 791 792 792 792 793 793 793 794 794 794 794 794 795 795 795 795 795 795 796 796 796 796 796 797 797 798 798 798 798 799 799 800 800 800 801 801 802 802 803 803 803 803 804 804 804 804 804 804 804 804 804 804 805 805 805 805 806 806 806 806 806 806 807 807 807 808 808 808 808 809 809 809 810 810 810 810 810 811 811 811
789 790 790 790 790 791 791 791 791 792 792 793 793 793 793 793 794 794 794 794 794 795 795 795 795 795 795 795 796 796 796 797 797 797 798 798 798 799 799 800 800 800 801 801 802 802 803 803 803 803 803 803 803 803 803 803 804 804 804 804 804 805 805 805 805 805 805 805 805 806 806 806 806 807 807 807 808 808 808 808 809 809 809 809 810 810
789 789 789 790 790 790 790 791 791 791 792 792 792 792 793 793 793 793 793 793 794 794 794 794 794 795 795 795 795 795 795 796 796 796 796 797 797 798 798 798 799 799 800 800 801 801 801 802 802 802 802 802 802 802 802 803 803 803 803 803 803 803 804 804 804 804 804 804 804 804 804 805 805 805 805 806 806 806 807 807 807 807 807 808 808 808
788 788 789 789 789 790 790 790 790 791 791 791 791 792 792 792 792 792 793 793 793 793 793 793 794 794 794 794 794 794 795 795 795 795 795 796 796 797 797 798 798 798 799 799 800 800 800 800 800 801 801 801 801 801 801 802 802 802 802 802 802 802 802 803 802 802 802 802 802 803 803 803 803 804 804 804 804 805 805 805 805 805 806 806 806 807
788 788 788 788 789 789 789 789 790 790 790 790 790 791 791 791 791 791 792 792 792 792 792 793 793 793 793 793 793 793 794 794 794 794 794 795 795 795 796 796 797 797 798 798 798 799 799 799 799 800 800 800 800 800 800 800 800 801 801 801 801 801 801 801 801 801 801 801 801 801 801 802 802 802 803 803 803 803 803 803 804 804 804 804 805 805
787 787 788 788 788 788 788 789 789 789 789 789 790 790 790 790 790 790 791 791 791 791 791 792 792 792 792 792 792 792 793 793 793 793 793 793 794 794 794 795 795 796 796 797 797 797 798 798 798 798 798 799 799 799 799 798 799 799 799 799 800 800 800 799 799 800 800 800 800 800 801 801 801 801 801 801 801 801 802 802 802 802 803 803 803 803
786 787 787 787 787 787 787 788 788 788 788 788 788 789 789 789 789 790 790 790 790 790 790 791 791 791 791 790 790 791 791 791 791 791 792 792 792 793 793 793 794 794 795 795 795 796 796 796 796 797 797 798 798 798 797 797 797 797 797 798 798 799 798 798 798 799 799 799 800 800 800 800 800 800 800 800 800 800 800 800 800 800 801 801 801 802
786 786 786 786 786 786 786 786 787 787 787 787 787 788 788 788 788 788 788 789 789 789 789 790 790 790 790 789 789 789 790 790 790 790 790 790 791 791 791 792 792 793 793 793 794 794 795 795 795 795 796 796 796 796 795 795 795 795 795 796 796 796 796 796 797 797 798 798 798 798 799 799 798 798 798 798 798 798 798 799 799 799 799 799 800 800
785 785 785 785 785 785 785 785 786 786 786 786 786 786 787 787 787 787 787 788 788 788 788 789 789 789 788 788 788 788 788 788 788 788 789 789 789 789 790 790 790 791 791 792 792 793 793 793 794 794 795 795 794 794 793 793 794 794 793 794 794 795 794 795 795 795 796 796 796 797 797 797 797 796 796 796 796 796 797 797 797 797 797 798 798 798
783 783 783 784 784 784 784 784 784 784 784 784 785 785 785 786 786 786 786 786 787 787 787 787 787 787 787 787 787 787 787 787 787 787 788 788 788 788 788 789 789 789 790 790 790 791 791 792 792 793 793 793 792 791 791 791 792 792 792 792 793 793 793 793 793 794 794 795 795 795 795 795 795 794 794 794 794 794 794 795 795 796 796 796 796 796
782 782 782 782 783 783 783 783 783 783 783 783 783 784 784 784 785 785 785 785 785 786 786 786 786 786 785 785 786 786 786 786 786 787 787 787 787 787 787 788 788 788 788 789 789 789 789 790 790 790 791 791 790 789 789 789 790 790 790 791 791 791 791 790 791 792 793 793 793 793 793 793 793 793 793 792 792 792 793 793 794 794 794 795 795 795
781 781 781 781 781 781 781 781 782 782 782 782 782 782 783 783 783 783 783 784 784 784 784 784 784 784 784 784 784 784 785 785 785 785 786 786 786 786 786 787 787 787 787 787 788 788 788 788 788 788 788 788 788 788 787 787 788 788 789 789 789 789 789 789 789 790 791 791 791 792 792 792 791 791 791 791 790 790 790 791 792 793 793 793 793 794
779 779 780 780 780 780 780 780 780 780 780 780 780 781 781 781 782 782 782 782 783 783 783 783 783 783 783 782 783 783 783 783 783 784 784 785 785 785 785 785 786 786 786 786 787 787 787 786 786 785 785 785 786 786 786 786 786 787 787 787 787 787 787 787 788 788 789 789 790 790 790 790 790 790 790 790 789 789 789 789 790 791 792 792 792 792
778 778 778 778 778 778 778 778 778 778 778 779 779 779 779 780 780 780 781 781 781 781 781 781 781 781 781 781 781 781 781 782 782 782 782 783 784 784 784 784 785 785 785 786 786 786 786 786 785 784 783 783 783 783 784 784 785 785 785 785 785 785 786 786 786 787 788 788 788 788 788 788 788 789 788 788 788 788 787 788 788 790 790 791 791 791
Wind_Speed
18 19 20 21 21 21 22 22 22 21 20 19 18 17 16 15 14 13 12 12 12 12 12 12 13 14 14 14 13 12 12 11 10 9 8 6 5 5 6 5 5 4 4 4 4 4 4 4 4 4 4 4 4 4 4 4 5 5 6 6 6 6 6 5 5 4 4 4 4 4 4 4 4 4 4 4 3 3 3 3 3 2 2 2 2 2
17 18 19 20 20 21 21 21 21 20 20 19 18 17 17 15 14 14 13 13 13 13 13 13 13 14 14 14 12 12 11 11 10 9 8 6 5 5 5 5 5 4 4 4 4 5 5 5 5 5 4 5 5 5 5 6 7 7 8 8 8 7 7 7 7 6 6 6 5 5 5 5 5 5 4 4 4 3 3 3 3 3 2 2 2 2
16 17 18 19 20 21 22 21 20 19 19 19 18 18 17 16 15 15 15 15 14 13 13 13 13 14 14 13 12 10 10 10 10 9 8 7 7 6 5 5 5 5 5 5 5 6 6 6 5 5 5 5 6 6 6 7 7 8 9 9 9 8 8 8 8 8 7 7 7 7 6 6 6 6 6 5 4 4 4 3 3 3 3 2 2 2
17 18 19 20 20 21 21 21 19 18 18 18 18 18 17 16 16 16 16 16 15 14 14 14 14 14 14 14 12 9 8 8 9 8 8 8 7 6 5 5 6 6 6 6 6 6 6 6 6 6 5 6 6 6 7 7 8 8 9 9 9 9 9 9 9 9 8 8 8 8 7 7 7 7 7 6 6 5 5 5 4 4 3 3 3 3
17 18 19 21 21 21 20 20 19 18 18 17 17 17 16 16 16 16 15 15 16 15 15 14 14 14 15 15 13 11 8 7 7 7 7 7 6 5 5 5 5 5 5 5 6 6 6 6 5 5 4 4 5 6 7 7 8 9 9 9 10 10 9 9 9 9 9 9 9 8 8 8 8 8 8 7 7 7 6 6 5 5 4 4 3 3
16 17 19 21 21 20 19 20 19 19 18 17 17 17 16 16 15 15 14 15 15 16 15 15 15 15 15 15 14 13 10 9 8 8 7 6 6 5 5 5 5 5 5 5 5 6 6 5 4 4 3 4 4 5 6 7 8 9 10 10 10 10 9 9 9 9 9 9 9 9 9 9 9 9 9 9 8 8 8 7 6 5 5 4 4 4
15 17 18 19 20 19 19 19 20 19 19 18 17 17 16 15 15 14 14 14 15 16 16 16 16 15 15 14 14 14 13 12 11 10 8 7 6 5 5 5 5 6 6 6 6 6 5 4 4 4 4 4 5 5 6 7 8 9 9 9 9 9 9 8 8 8 8 8 8 9 9 9 9 9 9 9 9 9 9 8 7 7 6 5 4 4
15 16 18 19 18 18 18 19 19 19 19 19 18 18 17 16 15 15 14 15 15 16 16 16 16 15 14 14 14 13 14 13 12 11 10 9 8 7 6 6 6 6 6 6 6 5 5 5 5 5 5 6 6 6 7 7 8 8 9 9 9 8 8 8 8 8 8 8 8 8 8 8 9 9 9 9 9 9 9 9 9 8 6 5 5 4
16 17 18 19 19 18 18 18 19 20 19 19 19 19 18 18 17 17 16 16 16 17 17 17 16 15 15 14 14 14 14 14 13 12 11 10 9 8 8 7 7 6 6 6 5 5 5 5 6 6 6 7 7 7 8 8 8 8 8 8 8 8 8 8 8 8 8 8 8 8 8 9 9 9 9 9 9 9 9 9 9 8 8 6 5 5
17 18 18 19 19 19 19 18 19 20 20 20 19 19 18 19 19 19 18 18 18 18 17 17 16 16 15 15 14 14 14 14 14 13 12 11 10 9 9 9 8 7 6 6 6 6 7 7 7 7 8 8 8 8 8 8 9 9 9 9 9 9 9 9 9 8 8 9 9 9 9 10 10 10 10 10 10 10 10 10 9 9 8 8 6 5
17 18 17 17 17 18 19 20 20 21 21 20 19 19 18 19 20 19 18 18 19 19 18 17 16 16 15 15 15 15 15 15 14 14 12 11 10 10 10 10 10 9 8 7 7 7 8 8 8 9 9 9 9 8 8 9 9 10 10 10 10 9 9 9 9 9 9 9 10 10 10 11 11 11 11 11 11 11 10 10 9 9 9 8 7 6
16 16 16 16 16 16 17 19 21 21 21 20 18 17 18 19 20 20 19 18 19 20 19 18 17 16 15 15 15 15 15 15 14 13 12 11 11 11 11 10 10 10 10 9 9 9 9 10 10 10 10 10 10 10 9 10 10 10 10 10 10 10 10 9 9 9 10 10 10 11 11 11 11 11 11 11 10 10 9 9 8 8 8 8 7 6
15 16 15 15 15 16 16 17 19 20 21 20 18 16 17 20 21 21 20 20 20 20 21 19 18 17 16 16 15 15 15 14 14 13 12 12 11 11 10 10 11 11 11 11 11 11 11 11 11 11 11 11 12 11 11 11 11 11 11 11 10 10 9 9 9 9 10 10 11 11 11 11 10 9 9 8 8 8 7 7 7 7 7 7 6 6
14 15 14 14 14 15 17 18 19 19 20 21 20 19 19 20 21 21 20 19 19 21 21 19 18 17 16 16 15 15 15 14 14 13 12 12 11 10 10 10 10 11 12 12 12 12 12 12 12 12 12 12 12 13 13 13 12 12 11 11 10 9 9 9 9 9 10 11 11 11 10 8 7 6 6 6 6 6 6 6 6 6 6 6 6 6
15 15 13 12 13 15 17 19 20 20 20 21 22 21 19 19 21 21 20 18 18 19 19 18 17 16 15 15 15 15 15 15 14 13 13 12 11 10 10 9 10 11 11 12 12 12 12 12 12 12 12 12 12 13 13 13 13 12 12 11 10 10 9 9 9 10 10 11 11 10 8 6 5 5 5 5 5 5 5 6 6 6 6 6 6 6
16 15 13 13 14 16 18 20 20 20 20 21 21 20 18 18 20 21 20 19 19 18 17 16 14 13 14 16 16 16 15 15 15 14 13 12 11 11 10 10 10 11 11 12 12 12 12 12 12 12 12 12 12 12 12 12 12 12 11 11 10 10 9 9 10 10 10 11 10 8 6 5 5 5 4 4 4 4 5 5 6 6 6 6 6 6
16 16 14 14 14 16 19 21 22 21 21 21 21 20 19 19 21 21 21 20 19 18 17 15 11 7 8 11 15 18 17 16 16 15 14 13 12 12 11 11 11 11 11 11 12 12 12 12 12 12 12 11 11 11 11 12 12 11 11 11 10 10 10 10 10 10 10 10 9 7 6 5 5 5 4 4 4 4 5 5 6 6 6 6 6 6
17 17 16 15 15 17 20 22 22 22 22 21 21 20 20 20 20 21 21 21 20 19 18 17 13 8 5 5 10 16 19 18 17 16 15 14 14 13 13 12 12 12 12 12 12 11 12 12 12 12 12 12 12 12 12 12 12 12 12 11 11 10 10 10 10 10 10 10 8 7 6 6 5 5 5 4 4 4 5 6 6 7 7 6 6 6
17 19 19 17 17 19 20 22 23 23 23 22 22 21 20 19 20 21 22 21 21 20 19 18 16 12 6 4 8 14 17 18 18 17 17 16 15 14 14 14 13 13 13 13 12 12 12 12 13 13 13 13 13 13 13 13 13 12 12 11 11 10 10 10 10 10 10 9 8 7 6 6 6 6 5 5 5 5 6 6 7 7 7 6 6 6
17 19 19 19 18 19 20 21 22 22 22 22 21 21 21 21 21 22 22 22 21 21 20 20 18 15 9 6 7 10 14 16 17 18 18 17 16 15 15 15 14 14 14 13 13 12 13 13 14 14 14 14 14 14 14 13 13 12 11 10 10 10 10 10 10 9 9 9 8 8 7 7 7 6 6 6 6 6 6 6 6 6 6 6 6 6
14 16 16 16 17 17 18 18 18 18 18 19 19 21 22 22 22 22 23 23 22 22 20 20 19 16 11 9 8 8 10 13 15 17 17 16 15 16 16 15 15 14 14 14 13 13 14 14 15 15 15 15 14 14 14 13 12 11 11 10 9 9 9 9 9 9 9 9 9 8 8 8 7 7 7 6 6 6 6 6 6 6 6 6 6 6
10 11 11 11 13 14 13 12 12 13 14 16 18 20 22 24 24 23 24 23 23 22 21 19 17 15 13 11 9 9 9 10 13 15 14 14 13 14 15 15 15 15 14 14 14 14 14 14 15 15 15 14 14 14 13 13 12 11 11 10 9 9 9 9 9 10 10 10 9 9 9 8 8 8 8 7 7 7 7 7 7 7 7 7 7 7
5 5 6 7 8 9 8 7 8 9 11 14 17 18 20 22 23 23 23 23 22 22 20 19 17 16 14 12 11 10 9 10 11 12 12 11 10 11 13 14 14 14 14 14 14 14 14 14 14 14 14 14 14 14 13 13 12 12 11 10 10 9 9 10 10 10 11 10 10 10 10 9 9 9 8 8 8 7 7 7 7 7 7 7 7 7
3 3 3 4 5 5 4 5 6 8 10 12 14 14 15 17 17 17 17 17 19 19 19 18 17 14 13 12 11 11 11 11 11 12 12 10 9 10 11 12 12 13 13 12 12 12 12 12 12 12 13 13 13 13 13 13 12 12 11 10 10 10 10 11 11 11 11 11 10 10 10 10 10 9 9 8 8 8 8 8 8 8 7 8 8 8
3 3 4 4 4 5 5 5 6 8 10 11 12 13 14 14 14 14 14 14 16 17 18 16 14 11 10 11 11 11 12 12 12 12 12 9 8 9 10 11 10 10 10 10 10 11 10 11 11 11 12 13 13 13 13 12 12 11 10 10 10 11 11 12 12 12 11 10 10 9 10 10 10 9 9 9 8 8 8 8 8 8 8 8 8 8
3 3 4 4 5 5 6 6 7 8 9 10 12 13 13 14 14 14 14 15 16 16 16 14 12 11 10 10 11 13 13 14 13 13 12 8 6 7 10 11 10 10 9 9 9 9 9 10 10 11 12 12 12 12 11 11 10 9 9 10 11 11 12 12 11 11 10 9 9 9 9 9 9 9 9 9 9 8 8 8 8 8 8 8 8 8
3 3 3 4 5 6 6 6 7 8 9 10 11 12 13 13 14 14 14 15 16 16 15 13 11 11 11 11 11 13 15 15 14 14 13 11 7 6 8 10 10 10 9 9 9 9 9 9 10 10 11 12 11 10 10 9 8 8 8 9 10 10 10 10 10 9 9 8 8 8 9 9 9 9 9 9 9 9 9 9 9 8 8 8 8 9
2 2 3 4 5 6 6 7 8 9 10 10 11 11 12 13 14 14 15 15 15 15 16 14 11 10 11 11 10 12 14 15 15 15 14 12 8 5 7 9 9 9 9 9 8 9 9 9 10 10 11 10 9 9 9 10 10 9 9 9 9 8 8 8 8 8 8 8 8 9 9 9 9 9 9 9 9 9 9 9 9 8 9 9 10 10
4 4 5 5 6 7 7 8 9 9 10 11 12 12 12 12 12 13 14 14 14 15 16 16 14 11 10 11 11 11 13 15 16 15 14 12 9 7 8 8 8 8 8 7 7 7 8 9 9 9 9 9 8 9 9 10 10 10 9 9 9 8 8 8 7 8 8 8 8 9 9 9 9 9 9 9 9 9 9 9 9 9 10 11 11 12
6 6 7 7 7 8 9 9 9 9 10 11 12 12 12 11 11 10 10 11 12 14 16 16 15 13 9 7 7 8 10 14 16 16 16 14 11 9 9 9 9 8 7 5 4 4 5 7 8 8 8 8 9 10 10 10 10 9 8 8 8 8 8 9 9 8 8 8 8 8 8 9 9 9 9 9 9 10 10 10 10 11 12 13 13 14
7 7 7 7 7 8 9 9 10 10 9 10 11 12 12 11 11 10 9 9 11 12 14 15 16 15 12 7 3 2 5 9 13 16 16 16 14 11 10 9 9 9 8 6 3 1 2 4 7 8 9 9 10 11 11 10 9 8 7 7 7 8 9 10 10 10 10 9 8 7 7 8 8 8 9 9 9 9 9 9 10 11 12 13 14 14
6 7 7 7 7 7 8 9 9 10 10 10 10 10 10 10 9 9 9 9 10 10 11 12 14 15 14 12 9 5 3 5 9 13 15 15 13 11 11 10 10 10 9 8 5 2 1 2 5 8 10 11 12 12 11 10 9 7 7 7 7 8 9 10 11 11 12 11 11 10 9 8 8 8 8 9 9 9 9 9 9 10 11 12 13 14
6 7 7 7 7 7 8 8 9 9 9 9 8 8 8 8 8 8 8 9 10 11 11 11 12 14 15 15 15 12 7 5 6 9 13 13 11 10 11 11 11 10 9 9 8 5 3 2 3 6 9 11 12 12 12 11 9 8 8 8 8 8 9 10 11 12 13 13 13 13 12 11 11 11 11 10 10 10 10 10 10 10 11 12 12 12
6 7 7 7 8 8 9 9 9 9 9 9 8 8 8 8 8 8 8 9 10 11 11 12 12 13 14 16 16 15 11 8 6 7 11 13 11 9 11 12 12 11 10 9 8 6 4 4 4 4 6 11 13 13 12 12 11 10 9 9 9 8 9 10 11 12 13 13 14 14 14 14 13 13 13 13 12 12 12 11 11 11 11 11 11 11
7 7 8 8 9 9 10 10 10 10 10 9 9 9 8 8 8 9 9 9 9 10 11 11 12 12 13 14 15 15 13 11 8 8 9 12 12 11 10 12 12 12 11 10 7 5 4 6 7 6 4 7 11 13 13 13 12 11 10 9 9 9 9 9 10 12 12 13 14 14 14 14 14 14 14 14 13 13 13 13 12 11 11 10 11 11
8 8 9 9 10 10 11 11 11 11 11 10 10 9 9 9 9 9 8 8 8 8 9 9 10 11 11 12 13 13 12 11 10 10 10 11 13 12 10 10 11 12 12 11 9 6 5 5 7 8 7 5 6 8 11 13 12 11 10 9 9 9 9 9 10 11 12 13 13 14 15 15 15 14 14 14 13 13 13 13 13 12 12 11 10 11
9 9 10 10 11 11 12 12 12 12 12 11 10 10 9 9 9 8 8 8 7 7 7 7 8 8 9 10 11 11 11 11 11 11 11 11 12 13 12 10 10 11 11 12 11 10 8 6 6 8 8 7 5 4 6 9 11 10 10 9 9 9 9 9 9 11 12 13 13 14 14 15 15 15 14 14 14 14 13 13 14 14 14 13 12 11
10 10 11 11 12 12 12 13 13 12 12 11 10 9 9 9 8 8 8 8 8 7 7 6 6 7 7 8 9 10 10 11 12 12 12 12 12 13 14 13 12 12 12 12 12 12 11 8 6 5 5 7 7 6 6 7 9 9 9 9 9 9 9 9 10 11 12 12 14 14 15 16 16 16 15 15 15 15 14 14 14 14 15 15 15 14
11 12 12 12 12 13 13 13 12 12 11 10 10 9 9 9 9 9 9 9 9 9 8 8 8 7 7 7 8 9 10 11 12 13 13 13 13 14 14 14 14 14 13 12 12 12 12 11 9 7 5 4 6 7 8 8 8 9 9 10 10 10 10 10 10 10 11 12 13 14 16 16 17 17 17 17 17 16 16 16 15 15 16 16 17 17
12 13 13 13 13 13 13 13 12 12 11 10 10 10 10 10 10 10 11 11 11 11 10 10 9 9 9 8 8 9 9 10 11 12 13 13 14 14 15 15 15 15 14 14 13 13 14 14 14 12 9 6 5 5 7 9 9 9 10 10 10 10 10 10 10 11 11 12 13 14 15 16 17 18 18 18 18 17 17 17 17 17 17 17 17 18
13 13 13 12 12 12 12 13 13 12 12 12 11 11 11 11 11 11 12 12 12 12 12 11 11 11 11 10 10 10 10 10 11 12 13 13 14 15 15 15 16 16 16 15 15 15 15 16 16 16 15 13 11 10 10 11 11 12 12 12 12 13 13 13 13 12 12 12 13 14 14 15 16 16 16 16 17 17 17 17 17 17 18 18 18 18
13 13 12 11 11 11 12 12 13 13 13 13 13 13 12 12 12 12 12 12 13 13 13 12 12 12 12 12 12 12 12 12 12 13 13 14 15 15 16 16 16 17 17 17 17 17 17 17 17 18 18 17 16 15 15 16 16 16 15 16 16 16 15 12 10 9 9 9 10 11 11 12 13 13 14 14 15 16 17 17 17 17 18 18 18 19
12 12 12 11 11 11 11 12 13 14 14 15 14 14 13 13 12 12 12 12 12 13 13 13 13 13 13 14 14 14 13 13 14 14 14 15 15 16 17 17 18 18 18 18 18 19 19 19 19 19 19 18 18 18 18 19 19 18 18 18 17 14 9 7 7 6 6 6 7 7 8 10 11 12 13 14 15 16 16 17 17 18 18 18 18 19
13 13 12 12 12 12 12 12 13 13 14 15 15 14 14 13 13 13 12 12 12 12 13 13 13 13 15 16 16 15 15 14 14 15 15 16 16 16 17 18 19 19 20 20 20 19 20 20 21 21 20 20 20 20 20 20 20 20 19 19 18 16 13 11 11 11 10 9 9 9 9 10 12 13 14 15 16 16 16 17 17 18 18 18 19 19
14 14 14 14 14 14 14 14 13 13 14 15 15 14 14 14 13 13 13 13 13 13 13 13 13 13 13 15 16 16 15 14 14 14 14 15 16 16 17 17 18 19 20 21 22 21 20 20 21 21 21 21 21 22 22 22 22 22 21 20 19 19 19 18 17 16 15 14 13 13 13 13 14 15 16 17 17 16 17 17 17 18 18 18 19 19
17 17 16 16 16 16 16 15 15 15 15 15 15 15 14 14 14 14 14 13 13 13 13 14 14 13 13 13 14 14 13 13 12 12 12 13 14 15 16 16 17 18 19 20 21 21 22 21 21 20 20 20 21 23 24 23 23 23 22 21 20 20 20 19 18 17 16 16 15 14 14 14 15 16 17 17 17 17 17 17 17 17 17 18 18 18
19 19 18 18 18 18 17 17 17 16 16 16 16 15 15 15 15 15 15 15 14 14 15 15 16 16 16 16 15 14 13 12 11 10 9 10 11 13 13 14 15 15 16 17 18 19 20 21 21 21 20 19 20 21 23 24 23 23 22 22 21 20 20 20 19 17 16 15 15 14 14 14 15 16 16 16 17 17 17 17 17 17 16 16 16 17
21 20 20 20 19 19 19 18 18 18 17 17 17 16 16 16 16 16 16 16 16 16 16 17 18 18 19 19 18 17 16 15 14 12 10 9 9 10 11 12 13 14 15 16 17 18 19 20 21 21 22 21 20 20 22 23 23 23 22 21 20 20 21 20 19 17 16 16 15 14 13 13 14 14 15 15 16 17 17 16 15 15 15 15 15 15
22 21 21 21 21 21 20 20 19 19 18 18 17 17 17 17 17 17 18 17 17 18 18 19 19 19 20 20 20 19 18 18 17 15 13 11 10 10 10 11 12 13 14 15 16 17 18 19 21 22 23 24 23 23 22 22 23 22 22 21 21 21 21 21 20 18 17 17 15 14 13 13 13 13 14 15 16 17 16 15 14 14 14 14 14 14
23 23 23 23 23 22 22 21 21 20 19 19 18 18 18 17 18 18 18 19 19 19 20 20 20 20 20 21 20 20 19 18 18 17 15 14 12 11 11 11 12 12 13 14 14 15 15 17 20 22 24 24 25 25 24 23 23 22 22 22 22 22 21 21 20 19 18 16 14 13 12 12 12 12 13 14 16 16 16 16 14 13 12 12 13 13
24 25 25 25 25 24 24 23 22 21 20 20 19 18 18 18 18 19 19 20 20 21 21 22 22 21 21 21 21 20 20 19 19 18 17 15 13 12 11 11 11 11 11 10 9 9 9 10 12 16 21 24 25 25 24 24 22 21 20 22 22 22 21 21 20 18 16 14 12 11 11 11 11 11 12 13 14 15 16 16 14 13 11 11 11 11
Wind_Direction
225 225 225 225 224 222 222 224 222 218 219 220 220 219 219 216 213 211 209 209 211 214 213 209 203 200 199 200 201 205 209 212 215 219 223 223 218 213 215 217 216 213 210 207 206 208 210 208 206 204 207 210 212 207 197 182 165 152 142 139 137 137 137 138 145 154 160 167 178 191 203 218 232 241 244 242 237 231 229 230 234 237 243 249 254 256
220 221 220 221 219 217 216 219 218 216 216 217 216 214 212 207 202 199 198 200 205 210 211 209 205 202 199 198 200 204 209 213 216 219 219 209 194 187 193 195 194 191 191 193 197 199 200 197 194 193 197 200 198 193 184 174 165 158 153 150 149 148 148 149 152 158 165 175 184 194 205 215 222 224 222 216 213 212 215 219 224 228 233 241 248 251
211 211 213 215 215 212 211 211 212 213 215 216 214 211 208 204 201 197 194 194 199 206 207 206 204 203 200 198 196 197 204 212 217 216 206 192 183 180 182 185 186 187 188 192 195 197 196 195 194 195 196 196 193 188 183 179 176 172 169 168 168 169 171 173 176 180 186 192 198 204 209 214 216 215 211 209 209 211 217 222 227 229 233 242 248 254
204 204 206 208 208 208 209 207 206 208 211 212 212 210 208 206 204 202 199 196 197 201 204 204 203 203 203 200 193 189 197 211 214 206 191 183 179 178 179 183 186 188 191 195 198 200 202 203 201 198 194 191 188 185 185 186 187 186 185 185 185 186 188 191 194 198 203 207 209 212 214 215 216 215 213 214 215 219 223 228 233 236 240 247 253 258
203 204 205 202 200 201 205 206 204 204 204 205 206 206 207 208 208 206 205 202 200 199 200 201 201 202 205 204 198 192 191 200 197 187 181 182 183 183 184 187 190 193 198 203 207 212 215 215 212 206 200 194 190 186 186 189 191 193 194 196 195 195 197 200 204 207 211 216 219 221 223 223 224 223 223 223 224 226 229 232 236 241 245 250 253 257
203 204 206 201 197 197 199 200 200 199 198 199 200 202 204 207 208 207 205 203 200 198 197 198 199 202 205 207 205 198 190 188 183 180 181 186 189 190 192 194 197 201 207 211 215 219 222 224 225 226 225 217 205 197 193 194 196 196 198 199 200 201 204 208 213 218 222 227 231 234 235 236 237 236 236 235 235 235 235 236 238 242 245 250 253 255
200 201 201 198 197 197 195 195 196 196 193 192 194 197 200 202 204 203 201 199 197 197 197 198 200 202 206 209 208 204 197 191 186 183 184 188 190 194 200 203 205 207 211 216 219 221 220 222 223 225 224 216 207 200 197 198 200 201 202 204 206 209 214 219 226 232 237 241 244 246 246 247 246 246 245 244 243 242 241 240 240 241 245 248 251 256
192 194 194 192 192 192 191 191 193 194 193 190 188 189 192 195 197 197 197 196 195 196 197 199 201 202 205 208 209 208 205 202 199 197 198 200 202 204 208 208 208 209 213 217 219 218 213 212 211 210 207 203 198 193 193 197 201 205 209 212 216 221 228 235 242 248 252 254 255 255 255 254 253 252 251 249 248 246 245 244 242 241 243 244 247 253
189 187 189 190 188 184 183 187 191 193 194 192 189 186 185 186 189 191 192 193 195 196 198 200 201 203 205 207 209 210 212 213 214 215 217 220 222 222 220 214 207 204 206 209 210 207 201 200 200 199 195 193 192 191 193 200 208 214 220 225 231 237 244 250 255 259 260 261 261 261 261 261 260 259 258 257 255 253 251 249 246 243 240 239 241 248
192 187 185 188 189 186 181 183 187 191 193 194 193 191 188 185 185 187 189 192 195 197 198 200 202 204 207 210 212 214 217 220 222 224 226 228 229 229 226 219 209 200 196 197 198 198 195 194 192 192 191 191 190 192 199 209 218 225 232 238 244 250 255 259 262 264 264 264 264 264 266 267 268 268 267 265 263 260 258 255 251 246 241 236 235 240
187 186 182 183 187 189 186 185 186 189 191 194 196 197 197 194 190 188 188 192 195 197 199 200 203 206 209 213 216 219 221 223 225 226 224 222 220 220 221 219 212 202 193 189 193 196 195 194 194 193 194 194 195 200 208 218 226 234 240 246 251 256 260 263 265 265 265 265 267 269 271 273 274 274 272 269 266 263 260 257 253 248 242 235 230 230
178 180 179 179 181 184 186 187 187 187 189 191 195 199 202 202 200 198 194 194 196 199 201 203 206 209 212 216 219 222 223 223 222 221 218 214 213 214 215 215 213 207 201 198 200 201 201 201 201 201 202 203 205 208 215 223 230 237 243 249 254 258 261 264 265 266 267 268 271 273 276 277 278 276 273 270 265 261 256 252 249 246 240 231 224 222
176 176 176 176 178 180 182 182 183 185 189 192 195 199 203 204 204 205 203 201 200 201 204 206 208 210 214 217 219 220 220 219 217 215 212 211 212 213 213 214 213 212 211 211 213 214 215 216 216 216 216 217 218 220 225 230 235 239 244 249 253 256 259 262 264 265 268 271 274 277 279 280 279 276 272 267 261 253 246 240 238 236 232 224 217 215
171 172 172 174 178 181 183 182 181 184 190 196 200 203 206 206 205 205 206 205 205 205 206 208 210 210 211 215 217 218 216 213 211 209 208 209 212 214 216 216 216 216 218 219 222 224 227 228 230 231 232 232 233 234 236 239 242 244 247 249 251 254 257 259 262 264 268 272 276 279 279 277 274 270 266 260 251 240 232 228 226 223 220 214 210 209
168 168 170 177 183 187 188 188 188 190 195 199 203 207 209 208 205 204 202 203 204 206 207 209 211 212 211 211 213 214 213 210 208 207 207 210 214 219 222 224 224 224 224 225 228 231 234 236 237 238 240 240 241 243 244 246 248 249 250 251 253 255 256 258 261 264 268 273 276 278 274 266 261 259 256 249 239 228 220 216 213 212 210 207 205 205
174 173 176 184 189 193 195 195 195 196 198 202 205 207 208 205 203 201 199 199 199 200 199 200 206 213 216 214 212 211 211 211 210 209 210 214 219 224 229 233 234 234 233 232 233 235 237 239 240 241 242 243 244 246 248 249 251 252 253 254 255 256 257 259 261 264 267 272 275 273 264 254 249 249 246 239 229 218 210 205 204 203 203 201 201 201
179 181 184 188 192 197 200 200 200 201 203 205 207 209 208 205 202 200 198 197 194 192 192 190 190 198 214 217 215 212 212 212 213 214 215 219 224 229 234 238 240 241 241 239 238 237 238 240 241 242 243 245 247 249 250 252 253 253 254 255 256 256 256 257 259 261 265 269 270 265 252 245 242 241 238 233 224 214 204 199 198 197 196 195 196 197
186 188 191 192 196 200 203 203 204 207 209 208 209 210 210 208 204 201 199 197 192 189 190 192 190 187 188 199 211 213 212 213 215 217 218 221 227 234 238 241 243 245 245 243 241 239 239 241 243 245 247 249 251 253 254 255 255 256 256 256 255 254 253 252 253 256 260 264 262 255 244 239 237 235 231 226 219 210 200 197 196 194 192 191 193 196
195 197 198 201 204 207 208 208 209 211 211 210 210 208 205 204 202 201 199 198 195 192 192 194 196 198 194 189 204 209 211 213 216 219 220 222 228 236 240 243 244 245 245 243 242 240 241 244 247 250 253 254 256 257 257 258 258 259 258 256 254 251 249 248 249 251 255 258 255 246 237 235 233 230 228 223 216 208 201 198 198 197 195 192 193 196
208 210 211 213 214 214 214 218 220 219 217 216 214 208 201 199 200 201 201 201 200 198 197 198 200 204 207 210 212 211 211 213 216 219 222 225 231 237 242 243 243 243 243 243 242 242 244 247 250 254 256 257 257 257 258 258 259 258 257 254 251 247 246 245 246 248 250 252 248 241 234 232 230 227 225 222 217 212 206 205 203 202 200 199 198 200
226 227 230 232 229 225 224 229 232 232 228 224 216 208 201 199 199 201 203 204 204 204 204 204 205 208 214 219 220 216 213 212 214 217 221 225 230 237 241 242 242 242 242 243 245 246 248 250 252 254 255 256 255 255 255 255 255 254 251 248 245 244 244 244 243 244 244 246 243 236 231 230 228 226 224 221 218 215 211 210 208 207 205 203 203 204
251 252 250 247 242 240 243 250 249 241 234 225 214 205 201 198 198 200 204 205 206 207 207 208 210 212 216 220 221 219 215 212 213 215 218 221 228 235 240 240 240 241 242 245 248 249 250 250 251 251 252 252 251 251 250 250 249 247 245 242 241 241 241 241 240 240 241 242 239 232 227 227 227 226 224 222 220 217 214 213 211 209 207 206 206 207
265 270 261 247 242 244 252 259 251 237 227 222 218 213 208 204 202 203 206 208 209 209 209 210 212 214 216 217 219 219 217 211 210 213 216 219 225 234 239 239 240 242 244 246 248 249 249 248 247 247 247 247 246 246 246 246 246 245 243 240 238 237 237 237 236 238 240 242 239 232 224 223 224 225 224 223 221 219 217 215 214 213 212 210 209 210
234 227 217 217 219 220 220 222 220 216 214 213 214 214 214 212 211 212 213 213 213 212 211 212 212 213 215 217 217 216 216 213 211 211 214 220 229 236 240 239 240 241 243 245 245 245 245 244 243 243 243 243 243 244 245 245 246 245 243 238 234 233 233 233 235 238 242 244 241 232 222 218 219 222 222 221 221 220 219 218 217 217 216 215 214 214
206 192 185 187 191 193 191 190 197 203 205 204 205 206 209 211 213 213 213 213 212 211 211 209 205 204 209 214 213 212 214 216 215 213 214 219 231 239 242 241 239 237 237 239 240 241 240 240 240 240 241 242 243 244 245 246 246 243 238 233 230 230 231 233 236 240 242 243 238 229 219 214 215 218 219 219 219 219 219 218 218 217 217 217 217 216
213 200 189 185 187 188 184 182 187 196 202 201 200 201 204 206 207 208 207 206 206 206 204 200 197 200 206 209 210 212 216 219 220 219 219 221 230 241 243 242 238 232 230 232 236 238 239 239 239 239 241 243 244 245 245 242 238 233 230 229 229 230 232 234 236 237 237 234 228 220 213 209 211 213 215 216 216 216 216 216 215 216 216 215 216 216
220 207 195 192 191 189 185 181 184 192 199 200 201 201 202 204 205 204 202 204 205 204 201 197 200 206 208 211 213 216 221 222 223 225 227 227 231 240 241 239 235 230 227 229 233 237 240 241 241 241 241 243 244 241 236 228 219 216 219 225 229 232 232 232 230 228 225 221 216 210 207 205 206 209 211 212 213 214 214 214 214 215 215 216 216 217
180 181 181 181 183 184 182 181 184 190 195 198 201 203 206 208 207 205 205 208 209 207 205 204 206 210 212 215 219 224 226 226 227 229 231 227 228 235 234 233 230 225 225 231 237 241 244 245 244 242 241 240 235 227 219 211 206 204 208 215 220 223 224 223 220 217 213 209 206 204 203 203 205 207 209 211 212 213 215 215 215 216 216 219 221 222
138 140 155 164 171 174 176 179 184 189 194 196 199 203 208 213 216 217 218 218 215 211 209 209 210 213 218 222 227 232 233 231 230 230 230 222 222 230 228 224 221 220 223 234 245 248 247 246 243 239 234 227 216 207 203 203 203 205 208 213 214 213 210 208 207 208 207 206 205 205 205 206 207 209 211 214 215 217 218 218 219 219 219 221 224 226
155 157 167 173 175 176 176 177 180 183 188 194 198 201 206 212 218 224 228 228 223 218 215 216 216 216 219 225 236 243 242 235 231 229 226 218 217 222 225 219 216 216 219 228 245 254 247 240 233 227 218 208 199 195 195 197 201 205 211 216 219 217 211 205 201 201 204 206 208 210 211 212 213 214 215 218 219 220 220 220 222 224 224 225 226 229
176 178 179 181 182 183 183 182 180 180 184 194 200 204 208 213 217 219 222 227 228 227 226 226 224 222 218 217 217 243 251 233 227 225 222 216 216 220 222 215 214 216 217 213 216 239 237 219 215 210 203 197 193 192 193 195 199 205 213 220 225 225 222 215 208 202 199 200 205 211 216 218 218 219 219 219 220 221 221 220 223 227 230 230 231 232
189 188 186 185 186 187 188 189 188 189 194 201 206 210 213 218 220 222 223 226 229 232 233 234 232 229 224 220 215 214 242 237 225 220 217 213 213 218 220 215 213 216 220 216 219 227 193 174 192 199 197 195 195 195 197 200 206 215 225 233 234 232 228 225 219 212 205 201 200 202 205 209 212 215 216 217 218 219 220 218 221 227 232 234 235 236
197 195 194 192 192 192 192 193 195 199 205 211 215 218 222 227 230 233 234 235 236 236 236 235 233 231 229 228 226 228 239 251 235 218 211 207 207 212 217 216 214 215 219 221 226 234 230 199 189 195 200 201 202 203 205 210 219 231 242 247 246 240 232 228 224 221 216 211 207 204 203 204 206 208 210 211 213 215 216 216 220 227 234 236 238 239
205 203 202 200 199 198 198 199 201 205 212 219 225 231 237 243 247 249 249 247 245 242 240 238 235 232 231 230 230 232 236 244 240 221 210 206 205 208 214 215 214 214 216 218 223 231 240 225 209 199 204 209 211 213 216 222 230 239 247 250 247 240 233 227 224 222 220 219 216 214 212 211 212 213 215 216 216 217 217 216 218 224 233 238 241 242
217 215 214 212 210 207 207 207 209 213 219 226 235 243 250 256 259 261 259 255 250 245 242 241 239 237 235 233 232 233 235 239 238 227 215 210 209 211 216 217 218 217 214 215 217 221 230 225 217 210 207 211 216 221 224 228 234 239 242 242 238 233 228 224 222 221 221 221 221 220 220 220 220 221 222 224 225 225 225 223 222 223 229 237 243 245
229 228 227 226 224 221 219 219 221 224 229 235 243 250 256 261 263 263 259 253 247 242 240 239 238 238 239 239 239 238 238 240 239 232 224 218 217 218 220 222 224 222 219 218 217 218 222 224 223 221 220 218 220 223 226 228 230 232 231 229 225 222 222 222 223 223 223 223 224 224 224 225 225 226 227 228 230 231 232 231 229 226 223 229 238 245
238 238 239 239 237 235 234 234 235 236 238 242 247 253 258 262 263 260 254 246 240 236 235 236 237 238 239 240 241 240 238 237 236 233 229 225 224 224 225 228 230 230 227 225 225 225 227 229 230 231 233 230 226 221 217 218 218 217 215 215 215 216 220 225 228 230 229 229 229 229 229 229 230 230 230 231 232 233 235 235 235 232 226 223 225 232
245 246 248 248 248 247 246 246 246 246 246 248 251 255 259 262 261 257 250 243 238 235 236 238 240 241 242 242 242 239 236 235 234 232 229 227 227 228 229 232 234 235 235 234 235 235 233 232 230 230 234 233 233 228 213 206 205 205 208 214 219 224 230 235 238 238 237 236 235 235 235 235 235 235 236 236 237 238 239 240 240 239 235 230 225 223
250 253 255 255 255 255 255 255 255 255 254 253 254 257 259 260 259 255 249 244 240 239 241 244 247 249 249 248 246 244 241 239 237 234 231 229 228 228 230 232 234 236 237 238 239 239 237 235 233 230 231 233 233 230 225 217 213 215 223 232 238 242 244 245 245 244 243 242 240 239 239 239 240 240 241 242 243 244 245 245 245 243 241 238 233 229
257 260 262 263 264 263 262 261 261 260 258 256 256 258 259 259 257 253 249 245 243 242 243 245 249 252 254 254 254 252 249 246 243 240 236 232 230 230 231 232 234 236 236 237 237 237 237 238 237 236 236 239 238 232 229 229 231 237 246 252 256 256 256 257 257 256 253 250 247 244 242 242 242 243 244 245 246 246 246 245 244 244 242 240 238 235
263 267 270 273 273 270 267 265 263 261 258 257 257 259 260 260 258 254 251 247 244 244 245 248 251 254 257 259 260 258 256 253 250 246 242 238 234 232 232 233 234 236 236 237 237 237 238 239 240 240 241 243 246 248 246 245 248 254 260 265 269 271 271 271 269 266 261 254 249 244 241 240 241 242 242 242 243 243 243 243 242 242 242 241 240 238
268 273 279 282 281 277 271 266 263 260 258 257 257 258 261 262 260 257 253 249 246 245 246 248 251 254 257 259 261 261 260 258 255 251 247 243 239 236 234 233 234 235 237 237 238 239 239 240 242 243 244 246 249 252 254 256 258 262 265 270 275 281 283 278 270 262 255 249 244 238 234 232 232 233 235 236 238 240 241 241 241 241 241 241 241 241
272 278 285 288 288 284 278 271 264 260 258 257 257 259 262 263 262 260 256 253 250 249 249 251 254 257 260 262 263 263 262 261 258 255 251 247 243 240 237 235 234 235 236 238 240 240 241 242 243 244 247 249 251 253 257 260 263 265 268 271 275 279 282 276 265 254 246 242 239 233 229 229 231 235 237 238 239 240 241 242 243 243 242 242 242 243
276 280 284 286 287 285 281 276 270 265 261 260 259 260 261 262 262 260 257 255 253 252 252 253 256 259 261 264 266 267 266 263 260 257 254 251 247 244 241 238 237 236 238 239 240 241 243 244 244 246 248 250 252 255 258 261 264 266 268 271 271 269 265 265 266 266 264 260 255 251 248 249 250 251 250 248 246 244 244 244 245 245 245 245 245 245
275 277 279 282 284 284 282 280 276 272 267 264 262 261 260 260 260 260 258 256 255 254 252 253 253 254 256 261 266 270 272 270 265 259 254 251 248 246 244 242 240 239 239 241 242 243 244 245 247 250 252 253 254 256 257 260 262 265 267 269 270 270 269 268 268 268 267 266 264 263 262 263 263 262 260 257 254 251 249 247 247 247 247 247 247 247
272 274 276 280 283 285 285 285 282 277 272 267 263 261 259 259 259 259 258 257 256 254 252 252 250 248 250 258 265 271 274 276 273 266 256 249 246 245 244 243 242 241 241 242 244 245 247 248 250 252 254 255 256 257 257 258 260 263 265 267 269 270 271 271 269 267 267 268 268 268 267 267 266 265 265 263 259 254 250 248 246 245 246 246 247 247
271 273 276 279 283 286 287 287 284 279 274 270 265 262 259 258 258 258 257 256 255 253 252 251 251 250 251 256 262 266 269 271 273 271 262 250 243 242 242 241 241 241 241 242 243 245 246 249 250 251 251 251 253 255 257 258 259 260 262 265 267 268 269 269 268 267 268 270 271 272 270 269 267 267 266 265 261 256 251 248 246 244 243 243 243 244
271 272 275 278 281 283 285 286 284 281 276 272 268 264 261 259 258 257 256 255 254 252 250 250 250 251 254 259 263 265 267 267 267 265 260 250 241 237 237 236 237 238 239 240 241 242 243 244 245 246 246 246 247 250 254 256 258 259 261 264 265 265 266 267 268 268 270 271 272 272 271 268 267 267 268 268 266 262 255 249 244 241 240 239 239 239
270 271 273 276 278 280 282 284 283 281 278 275 271 268 264 261 259 257 256 255 253 251 249 248 249 251 254 259 263 266 267 268 267 263 257 250 242 237 234 234 235 236 237 239 241 242 243 244 244 243 243 243 244 246 250 254 256 258 260 262 262 262 264 266 268 269 271 272 272 270 266 263 261 262 266 270 271 267 260 252 244 238 236 235 236 237
268 270 272 274 276 278 280 282 282 281 279 276 273 271 268 265 261 258 256 255 252 250 249 249 250 251 253 257 261 264 265 265 264 262 257 251 244 239 237 235 235 236 238 240 243 246 249 252 251 249 247 245 244 245 247 250 253 256 257 258 259 260 262 265 268 270 272 272 270 265 259 255 254 256 259 264 267 268 266 259 250 240 235 233 235 237
268 269 271 272 274 276 278 280 280 280 278 277 275 272 270 267 263 260 257 254 251 249 249 250 251 251 252 256 259 262 263 262 261 259 257 252 247 243 240 237 235 233 233 233 238 247 256 261 262 261 256 251 248 246 245 245 247 250 251 255 258 259 261 264 267 269 270 269 264 258 250 247 247 250 254 259 263 267 269 266 259 249 240 235 236 238